RYR61LJ LEPA-LEZL

Flight info

Callsign RYR61LJ
Flight time 1h 22m
Altitude 35000
Route EPAMA N733 VLC M985 YES N747 BLN
Aircraft B738/M-SDE2E3FGHIRWXY/LB1

Departure

Time 2026-04-24 07:20
Airport Palma de Mallorca Airport (LEPA)

Arrival

Time 2026-04-24 08:42
Airport Seville Airport (LEZL)
Time Latitude Longitude Altitude Speed Heading
2026-04-24 07:02 39.55330 2.73406 23 ft 0 kts 160°
2026-04-24 07:10 39.55332 2.73405 23 ft 1 kts 160°
2026-04-24 07:10 39.55346 2.73398 22 ft 2 kts 161°
2026-04-24 07:10 39.55360 2.73392 22 ft 1 kts 161°
2026-04-24 07:11 39.55370 2.73387 22 ft 2 kts 151°
2026-04-24 07:11 39.55381 2.73374 21 ft 2 kts 124°
2026-04-24 07:11 39.55387 2.73356 20 ft 2 kts 101°
2026-04-24 07:11 39.55388 2.73336 19 ft 2 kts 78°
2026-04-24 07:12 39.55384 2.73322 19 ft 0 kts 62°
2026-04-24 07:12 39.55381 2.73314 19 ft 0 kts 59°
2026-04-24 07:15 39.55386 2.73325 19 ft 2 kts 59°
2026-04-24 07:15 39.55400 2.73356 20 ft 4 kts 59°
2026-04-24 07:15 39.55420 2.73399 21 ft 6 kts 59°
2026-04-24 07:16 39.55459 2.73480 22 ft 13 kts 58°
2026-04-24 07:16 39.55499 2.73582 22 ft 10 kts 104°
2026-04-24 07:16 39.55433 2.73648 26 ft 15 kts 149°
2026-04-24 07:16 39.55323 2.73736 32 ft 19 kts 149°
2026-04-24 07:17 39.55212 2.73823 35 ft 17 kts 148°
2026-04-24 07:17 39.55100 2.73911 37 ft 18 kts 149°
2026-04-24 07:17 39.54987 2.74000 36 ft 18 kts 148°
2026-04-24 07:17 39.54869 2.74094 32 ft 20 kts 149°
2026-04-24 07:18 39.54757 2.74063 32 ft 18 kts 240°
2026-04-24 07:18 39.54689 2.73916 33 ft 21 kts 239°
2026-04-24 07:18 39.54607 2.73743 33 ft 22 kts 239°
2026-04-24 07:18 39.54511 2.73702 33 ft 16 kts 149°
2026-04-24 07:19 39.54435 2.73773 32 ft 8 kts 117°
2026-04-24 07:19 39.54445 2.73849 32 ft 10 kts 60°
2026-04-24 07:19 39.54544 2.74061 31 ft 58 kts 59°
2026-04-24 07:19 39.54881 2.74773 19 ft 122 kts 58°
2026-04-24 07:20 39.55416 2.75902 86 ft 163 kts 59°
2026-04-24 07:20 39.55983 2.77132 781 ft 159 kts 61°
2026-04-24 07:20 39.56548 2.78406 1319 ft 169 kts 61°
2026-04-24 07:20 39.57194 2.79803 1753 ft 187 kts 61°
2026-04-24 07:21 39.57897 2.81296 2212 ft 202 kts 62°
2026-04-24 07:21 39.58630 2.82897 2840 ft 208 kts 62°
2026-04-24 07:21 39.59365 2.84502 3488 ft 212 kts 62°
2026-04-24 07:21 39.60128 2.86165 4163 ft 216 kts 61°
2026-04-24 07:22 39.60906 2.87854 4835 ft 219 kts 60°
2026-04-24 07:22 39.61688 2.89551 5511 ft 221 kts 60°
2026-04-24 07:22 39.62512 2.91276 6123 ft 227 kts 52°
2026-04-24 07:22 39.63770 2.92478 6741 ft 232 kts 15°
2026-04-24 07:23 39.65364 2.92421 7408 ft 234 kts 336°
2026-04-24 07:23 39.66581 2.91074 8133 ft 234 kts 298°
2026-04-24 07:23 39.67051 2.89058 8891 ft 234 kts 280°
2026-04-24 07:23 39.67308 2.86980 9595 ft 235 kts 282°
2026-04-24 07:24 39.67616 2.84907 10326 ft 236 kts 283°
2026-04-24 07:24 39.67940 2.82815 11067 ft 237 kts 282°
2026-04-24 07:24 39.68219 2.80711 11782 ft 239 kts 280°
2026-04-24 07:24 39.68430 2.78570 12503 ft 241 kts 277°
2026-04-24 07:25 39.68521 2.76391 13242 ft 243 kts 273°
2026-04-24 07:25 39.68573 2.74181 13892 ft 246 kts 282°
2026-04-24 07:25 39.69186 2.72061 14319 ft 258 kts 300°
2026-04-24 07:25 39.70119 2.70002 14732 ft 273 kts 301°
2026-04-24 07:26 39.71041 2.67754 15142 ft 288 kts 297°
2026-04-24 07:26 39.71914 2.65324 15571 ft 303 kts 295°
2026-04-24 07:26 39.72766 2.62784 16182 ft 310 kts 295°
2026-04-24 07:26 39.73621 2.60187 16854 ft 315 kts 295°
2026-04-24 07:27 39.74497 2.57531 17530 ft 320 kts 295°
2026-04-24 07:27 39.75371 2.54891 18211 ft 324 kts 295°
2026-04-24 07:27 39.76269 2.52193 18885 ft 327 kts 295°
2026-04-24 07:27 39.77178 2.49464 19563 ft 330 kts 295°
2026-04-24 07:28 39.78088 2.46737 20184 ft 333 kts 295°
2026-04-24 07:28 39.79015 2.43954 20791 ft 337 kts 295°
2026-04-24 07:28 39.79946 2.41154 21420 ft 339 kts 295°
2026-04-24 07:28 39.80870 2.38328 22013 ft 343 kts 292°
2026-04-24 07:29 39.81610 2.35386 22521 ft 348 kts 284°
2026-04-24 07:29 39.81934 2.32243 23085 ft 352 kts 272°
2026-04-24 07:29 39.81801 2.29058 23665 ft 355 kts 263°
2026-04-24 07:29 39.81340 2.25900 24192 ft 359 kts 257°
2026-04-24 07:30 39.80680 2.22773 24753 ft 361 kts 254°
2026-04-24 07:30 39.79933 2.19624 25232 ft 365 kts 253°
2026-04-24 07:30 39.79169 2.16503 25767 ft 367 kts 253°
2026-04-24 07:30 39.78391 2.13327 26314 ft 368 kts 253°
2026-04-24 07:31 39.77623 2.10167 26781 ft 371 kts 253°
2026-04-24 07:31 39.76852 2.06962 27322 ft 371 kts 253°
2026-04-24 07:31 39.76077 2.03725 27784 ft 374 kts 253°
2026-04-24 07:31 39.75315 2.00528 28273 ft 375 kts 253°
2026-04-24 07:32 39.74531 1.97230 28716 ft 378 kts 253°
2026-04-24 07:32 39.73762 1.93999 29179 ft 379 kts 253°
2026-04-24 07:32 39.72978 1.90703 29594 ft 381 kts 253°
2026-04-24 07:32 39.72189 1.87390 30041 ft 383 kts 253°
2026-04-24 07:33 39.71403 1.84096 30438 ft 385 kts 253°
2026-04-24 07:33 39.70603 1.80747 30778 ft 388 kts 253°
2026-04-24 07:33 39.69795 1.77367 31162 ft 390 kts 253°
2026-04-24 07:33 39.68986 1.73990 31488 ft 393 kts 253°
2026-04-24 07:34 39.68173 1.70598 31845 ft 396 kts 253°
2026-04-24 07:34 39.67340 1.67131 32147 ft 399 kts 253°
2026-04-24 07:34 39.66510 1.63678 32511 ft 401 kts 253°
2026-04-24 07:34 39.65672 1.60203 32786 ft 405 kts 253°
2026-04-24 07:35 39.64823 1.56686 33108 ft 407 kts 253°
2026-04-24 07:35 39.63974 1.53170 33406 ft 410 kts 253°
2026-04-24 07:35 39.63118 1.49636 33715 ft 412 kts 253°
2026-04-24 07:35 39.62255 1.46074 34000 ft 415 kts 253°
2026-04-24 07:36 39.61393 1.42495 34304 ft 417 kts 254°
2026-04-24 07:36 39.60636 1.38810 34655 ft 419 kts 258°
2026-04-24 07:36 39.60128 1.35115 34953 ft 421 kts 263°
2026-04-24 07:36 39.59794 1.31277 35101 ft 424 kts 264°
2026-04-24 07:37 39.59369 1.23712 35102 ft 417 kts 266°
2026-04-24 07:37 39.59010 1.16183 35101 ft 418 kts 266°
2026-04-24 07:38 39.58623 1.08604 35103 ft 420 kts 265°
2026-04-24 07:38 39.58208 1.01055 35102 ft 419 kts 265°
2026-04-24 07:39 39.57777 0.93551 35103 ft 419 kts 265°
2026-04-24 07:39 39.57334 0.86001 35102 ft 419 kts 265°
2026-04-24 07:40 39.56884 0.78460 35102 ft 418 kts 265°
2026-04-24 07:40 39.56431 0.70962 35106 ft 418 kts 265°
2026-04-24 07:41 39.55970 0.63429 35106 ft 419 kts 264°
2026-04-24 07:41 39.55504 0.55883 35105 ft 419 kts 264°
2026-04-24 07:42 39.55036 0.48378 35105 ft 419 kts 264°
2026-04-24 07:42 39.54562 0.40856 35107 ft 419 kts 264°
2026-04-24 07:43 39.54083 0.33326 35107 ft 418 kts 263°
2026-04-24 07:43 39.53598 0.25787 35108 ft 420 kts 263°
2026-04-24 07:44 39.53107 0.18245 35110 ft 421 kts 264°
2026-04-24 07:44 39.52610 0.10688 35080 ft 424 kts 263°
2026-04-24 07:45 39.52107 0.03093 35094 ft 420 kts 263°
2026-04-24 07:45 39.51602 -0.04484 35109 ft 423 kts 263°
2026-04-24 07:46 39.51089 -0.12070 35116 ft 422 kts 263°
2026-04-24 07:46 39.50573 -0.19618 35115 ft 423 kts 263°
2026-04-24 07:47 39.50050 -0.27193 35121 ft 423 kts 263°
2026-04-24 07:47 39.49521 -0.34782 35121 ft 422 kts 263°
2026-04-24 07:48 39.48969 -0.42386 35122 ft 421 kts 261°
2026-04-24 07:48 39.47499 -0.49607 35124 ft 417 kts 242°
2026-04-24 07:49 39.44325 -0.55899 35125 ft 416 kts 232°
2026-04-24 07:49 39.42568 -0.58884 35248 ft 421 kts 231°
2026-04-24 07:49 39.40775 -0.61863 35472 ft 423 kts 231°
2026-04-24 07:50 39.38953 -0.64881 35910 ft 420 kts 231°
2026-04-24 07:50 39.37196 -0.67805 36372 ft 416 kts 230°
2026-04-24 07:50 39.35424 -0.70768 36779 ft 416 kts 231°
2026-04-24 07:50 39.33658 -0.73736 37129 ft 416 kts 231°
2026-04-24 07:51 39.30117 -0.79705 37128 ft 416 kts 231°
2026-04-24 07:51 39.26614 -0.85625 37126 ft 414 kts 231°
2026-04-24 07:52 39.23116 -0.91534 37124 ft 415 kts 231°
2026-04-24 07:52 39.19600 -0.97464 37126 ft 415 kts 231°
2026-04-24 07:53 39.16095 -1.03366 37124 ft 415 kts 231°
2026-04-24 07:53 39.12575 -1.09281 37124 ft 415 kts 231°
2026-04-24 07:54 39.09068 -1.15165 37122 ft 415 kts 231°
2026-04-24 07:54 39.05553 -1.21051 37115 ft 415 kts 231°
2026-04-24 07:55 39.02033 -1.26935 37117 ft 415 kts 230°
2026-04-24 07:55 38.98487 -1.32852 37112 ft 415 kts 230°
2026-04-24 07:56 38.94957 -1.38732 37434 ft 415 kts 230°
2026-04-24 07:56 38.93180 -1.41687 36943 ft 413 kts 230°
2026-04-24 07:56 38.91445 -1.44573 37099 ft 413 kts 230°
2026-04-24 07:57 38.89653 -1.47547 37318 ft 418 kts 230°
2026-04-24 07:57 38.87876 -1.50494 37195 ft 412 kts 230°
2026-04-24 07:57 38.84393 -1.56266 37124 ft 411 kts 230°
2026-04-24 07:58 38.80885 -1.62065 37119 ft 412 kts 230°
2026-04-24 07:58 38.77377 -1.67856 37117 ft 412 kts 230°
2026-04-24 07:59 38.73855 -1.73660 37120 ft 411 kts 229°
2026-04-24 07:59 38.70359 -1.79407 37123 ft 411 kts 229°
2026-04-24 08:00 38.66818 -1.85217 37119 ft 412 kts 229°
2026-04-24 08:00 38.63289 -1.90998 37117 ft 411 kts 229°
2026-04-24 08:01 38.59781 -1.96733 37121 ft 412 kts 229°
2026-04-24 08:01 38.56252 -2.02492 37115 ft 411 kts 229°
2026-04-24 08:02 38.52723 -2.08242 37112 ft 410 kts 229°
2026-04-24 08:02 38.49199 -2.13974 37112 ft 410 kts 229°
2026-04-24 08:03 38.45652 -2.19735 37111 ft 411 kts 229°
2026-04-24 08:03 38.42105 -2.25488 36932 ft 407 kts 229°
2026-04-24 08:04 38.40364 -2.28308 37115 ft 410 kts 229°
2026-04-24 08:04 38.38574 -2.31241 37114 ft 414 kts 231°
2026-04-24 08:04 38.35816 -2.37680 37116 ft 419 kts 248°
2026-04-24 08:05 38.34350 -2.44861 37111 ft 422 kts 255°
2026-04-24 08:05 38.33239 -2.52116 37123 ft 422 kts 256°
2026-04-24 08:06 38.32134 -2.59531 37120 ft 423 kts 256°
2026-04-24 08:06 38.30995 -2.66923 37112 ft 423 kts 255°
2026-04-24 08:07 38.29836 -2.74251 37106 ft 421 kts 255°
2026-04-24 08:07 38.28656 -2.81589 37100 ft 422 kts 254°
2026-04-24 08:08 38.27475 -2.88874 37103 ft 420 kts 254°
2026-04-24 08:09 38.25688 -2.99825 37096 ft 421 kts 254°
2026-04-24 08:09 38.24491 -3.07108 37095 ft 422 kts 254°
2026-04-24 08:10 38.23288 -3.14412 37102 ft 421 kts 254°
2026-04-24 08:10 38.22079 -3.21718 37091 ft 421 kts 254°
2026-04-24 08:11 38.20863 -3.29036 37086 ft 422 kts 253°
2026-04-24 08:11 38.19642 -3.36350 37092 ft 422 kts 254°
2026-04-24 08:12 38.18414 -3.43684 37102 ft 421 kts 254°
2026-04-24 08:12 38.17187 -3.50981 37092 ft 421 kts 253°
2026-04-24 08:13 38.15950 -3.58298 37090 ft 422 kts 253°
2026-04-24 08:13 38.14641 -3.65522 37089 ft 419 kts 250°
2026-04-24 08:14 38.12935 -3.72622 37084 ft 419 kts 248°
2026-04-24 08:14 38.11118 -3.79708 37062 ft 419 kts 247°
2026-04-24 08:15 38.09325 -3.86790 37071 ft 420 kts 248°
2026-04-24 08:15 38.07571 -3.93823 37092 ft 418 kts 248°
2026-04-24 08:16 38.05822 -4.00880 36683 ft 411 kts 248°
2026-04-24 08:16 38.04972 -4.04316 36283 ft 408 kts 247°
2026-04-24 08:16 38.04123 -4.07737 35745 ft 409 kts 246°
2026-04-24 08:16 38.03270 -4.11171 35223 ft 409 kts 246°
2026-04-24 08:17 38.02413 -4.14629 34736 ft 407 kts 246°
2026-04-24 08:17 38.01571 -4.18023 34168 ft 405 kts 246°
2026-04-24 08:17 38.00720 -4.21448 33659 ft 401 kts 246°
2026-04-24 08:17 37.99891 -4.24790 33170 ft 397 kts 246°
2026-04-24 08:18 37.99060 -4.28139 32683 ft 393 kts 246°
2026-04-24 08:18 37.98247 -4.31412 32213 ft 390 kts 246°
2026-04-24 08:18 37.97430 -4.34675 31744 ft 386 kts 246°
2026-04-24 08:18 37.96617 -4.37919 31262 ft 383 kts 247°
2026-04-24 08:19 37.95804 -4.41146 30790 ft 380 kts 247°
2026-04-24 08:19 37.95006 -4.44312 30331 ft 376 kts 247°
2026-04-24 08:19 37.94215 -4.47460 29855 ft 373 kts 247°
2026-04-24 08:19 37.93429 -4.50572 29395 ft 369 kts 247°
2026-04-24 08:20 37.92641 -4.53693 28936 ft 366 kts 248°
2026-04-24 08:20 37.91874 -4.56730 28486 ft 363 kts 248°
2026-04-24 08:20 37.91101 -4.59784 28031 ft 359 kts 248°
2026-04-24 08:20 37.90347 -4.62764 27590 ft 356 kts 248°
2026-04-24 08:21 37.89583 -4.65774 27133 ft 353 kts 248°
2026-04-24 08:21 37.88839 -4.68706 26701 ft 350 kts 248°
2026-04-24 08:21 37.88097 -4.71623 26262 ft 347 kts 248°
2026-04-24 08:21 37.87369 -4.74480 25842 ft 344 kts 248°
2026-04-24 08:22 37.86634 -4.77368 25416 ft 341 kts 248°
2026-04-24 08:22 37.85911 -4.80209 24997 ft 338 kts 248°
2026-04-24 08:22 37.85189 -4.83040 24566 ft 335 kts 248°
2026-04-24 08:22 37.84516 -4.85882 24114 ft 334 kts 252°
2026-04-24 08:23 37.84006 -4.88744 23675 ft 333 kts 255°
2026-04-24 08:23 37.83584 -4.91601 23265 ft 331 kts 257°
2026-04-24 08:23 37.83183 -4.94442 22855 ft 329 kts 256°
2026-04-24 08:23 37.82774 -4.97299 22443 ft 327 kts 256°
2026-04-24 08:24 37.82359 -5.00122 22030 ft 324 kts 256°
2026-04-24 08:24 37.81940 -5.02901 21626 ft 322 kts 256°
2026-04-24 08:24 37.81513 -5.05686 21229 ft 319 kts 256°
2026-04-24 08:24 37.81089 -5.08429 20818 ft 317 kts 256°
2026-04-24 08:25 37.80667 -5.11158 20428 ft 314 kts 256°
2026-04-24 08:25 37.80244 -5.13890 20020 ft 312 kts 257°
2026-04-24 08:25 37.79829 -5.16567 19624 ft 310 kts 257°
2026-04-24 08:25 37.79411 -5.19230 19237 ft 307 kts 257°
2026-04-24 08:26 37.78992 -5.21891 18861 ft 304 kts 256°
2026-04-24 08:26 37.78585 -5.24482 18488 ft 301 kts 257°
2026-04-24 08:26 37.78173 -5.27093 18103 ft 299 kts 257°
2026-04-24 08:26 37.77770 -5.29650 17733 ft 296 kts 257°
2026-04-24 08:27 37.77370 -5.32186 17359 ft 294 kts 257°
2026-04-24 08:27 37.76968 -5.34739 16981 ft 292 kts 257°
2026-04-24 08:27 37.76575 -5.37224 16622 ft 291 kts 256°
2026-04-24 08:27 37.76177 -5.39734 16243 ft 289 kts 256°
2026-04-24 08:28 37.75784 -5.42205 15883 ft 289 kts 256°
2026-04-24 08:28 37.75372 -5.44783 15511 ft 305 kts 256°
2026-04-24 08:28 37.74951 -5.47411 15110 ft 308 kts 256°
2026-04-24 08:28 37.74532 -5.50047 14724 ft 305 kts 256°
2026-04-24 08:29 37.74117 -5.52659 14331 ft 303 kts 256°
2026-04-24 08:29 37.73700 -5.55282 13949 ft 301 kts 256°
2026-04-24 08:29 37.73292 -5.57841 13575 ft 299 kts 256°
2026-04-24 08:29 37.72883 -5.60400 13199 ft 297 kts 256°
2026-04-24 08:30 37.72470 -5.62981 12815 ft 295 kts 256°
2026-04-24 08:30 37.72065 -5.65507 12438 ft 293 kts 256°
2026-04-24 08:30 37.71662 -5.68023 12063 ft 291 kts 256°
2026-04-24 08:30 37.71257 -5.70542 11688 ft 290 kts 256°
2026-04-24 08:31 37.70857 -5.73027 11314 ft 288 kts 256°
2026-04-24 08:31 37.70459 -5.75489 10958 ft 286 kts 256°
2026-04-24 08:31 37.70061 -5.77952 10589 ft 284 kts 256°
2026-04-24 08:31 37.69667 -5.80400 10228 ft 283 kts 256°
2026-04-24 08:32 37.69274 -5.82837 10000 ft 276 kts 256°
2026-04-24 08:32 37.68888 -5.85218 9652 ft 275 kts 256°
2026-04-24 08:32 37.68505 -5.87577 9303 ft 273 kts 256°
2026-04-24 08:32 37.68126 -5.89902 8978 ft 271 kts 257°
2026-04-24 08:33 37.67746 -5.92260 8634 ft 270 kts 257°
2026-04-24 08:33 37.67374 -5.94579 8281 ft 268 kts 257°
2026-04-24 08:33 37.67004 -5.96875 7962 ft 266 kts 257°
2026-04-24 08:33 37.66634 -5.99155 7633 ft 265 kts 257°
2026-04-24 08:34 37.66145 -6.01427 7212 ft 265 kts 246°
2026-04-24 08:34 37.65119 -6.03322 6848 ft 261 kts 220°
2026-04-24 08:34 37.63667 -6.04659 6525 ft 258 kts 211°
2026-04-24 08:34 37.62142 -6.05872 6199 ft 256 kts 211°
2026-04-24 08:35 37.60657 -6.07093 5889 ft 254 kts 212°
2026-04-24 08:35 37.59201 -6.08347 5561 ft 253 kts 214°
2026-04-24 08:35 37.57753 -6.09622 5233 ft 251 kts 214°
2026-04-24 08:35 37.56318 -6.10893 4925 ft 250 kts 214°
2026-04-24 08:36 37.54888 -6.12154 4610 ft 249 kts 214°
2026-04-24 08:36 37.53473 -6.13399 4320 ft 247 kts 214°
2026-04-24 08:36 37.52021 -6.14512 4164 ft 237 kts 202°
2026-04-24 08:36 37.50444 -6.14882 4025 ft 226 kts 172°
2026-04-24 08:37 37.48944 -6.14395 3886 ft 217 kts 161°
2026-04-24 08:37 37.47512 -6.13801 3662 ft 215 kts 163°
2026-04-24 08:37 37.46071 -6.13277 3406 ft 214 kts 163°
2026-04-24 08:37 37.44638 -6.12789 3166 ft 213 kts 164°
2026-04-24 08:38 37.43219 -6.12223 2947 ft 211 kts 156°
2026-04-24 08:38 37.42084 -6.11113 2743 ft 209 kts 123°
2026-04-24 08:38 37.41669 -6.09398 2650 ft 200 kts 94°
2026-04-24 08:38 37.41701 -6.07686 2551 ft 191 kts 88°
2026-04-24 08:39 37.41742 -6.06081 2431 ft 181 kts 91°
2026-04-24 08:39 37.41735 -6.04481 2163 ft 181 kts 91°
2026-04-24 08:39 37.41738 -6.02907 1914 ft 179 kts 90°
2026-04-24 08:39 37.41748 -6.01359 1670 ft 178 kts 90°
2026-04-24 08:40 37.41750 -5.99853 1466 ft 165 kts 89°
2026-04-24 08:40 37.41758 -5.98426 1214 ft 156 kts 90°
2026-04-24 08:40 37.41767 -5.97088 1022 ft 150 kts 90°
2026-04-24 08:40 37.41772 -5.95799 809 ft 144 kts 90°
2026-04-24 08:41 37.41777 -5.94524 636 ft 147 kts 90°
2026-04-24 08:41 37.41782 -5.93226 428 ft 149 kts 90°
2026-04-24 08:41 37.41786 -5.91919 219 ft 147 kts 90°
2026-04-24 08:41 37.41788 -5.90654 81 ft 136 kts 89°
2026-04-24 08:42 37.41793 -5.89811 86 ft 64 kts 89°
2026-04-24 08:42 37.41792 -5.89391 87 ft 33 kts 90°
2026-04-24 08:42 37.41830 -5.89246 89 ft 11 kts 346°
2026-04-24 08:42 37.41904 -5.89299 89 ft 14 kts 328°
2026-04-24 08:43 37.41991 -5.89370 90 ft 14 kts 321°
2026-04-24 08:43 37.42062 -5.89461 90 ft 16 kts 314°
2026-04-24 08:43 37.42153 -5.89578 90 ft 19 kts 315°
2026-04-24 08:43 37.42245 -5.89696 92 ft 17 kts 314°
2026-04-24 08:44 37.42324 -5.89707 93 ft 10 kts 42°
2026-04-24 08:44 37.42385 -5.89681 94 ft 9 kts 344°
2026-04-24 08:44 37.42421 -5.89658 93 ft 0 kts 40°